This demonstration page uses our WeatherBlox Daily Observations layout. Learn more.

Left ArrowRight Arrow

Hourly Observations for August 18, 2017

Temp ( °F °C ) Dew Point ( °F °C ) Humidity (%) Winds ( mph kmh ) Pressure ( in mb ) Visibility ( mi km ) Precip ( " mm )
12:51 am 00:51 Clear 71 21.7 44 6.7 38 38 undefined N/A 29.86 1011 10 16.0934 0 0
1:51 am 01:51 Clear 69 20.6 42 5.6 38 38 NNE 6 9 29.86 1011 10 16.0934 0 0.0254
2:51 am 02:51 Clear 66 18.9 42 5.6 42 42 ENE 5 7 29.87 1011 10 16.0934 0 0
3:51 am 03:51 Clear 65 18.3 44 6.7 47 47 S 5 7 29.88 1012 10 16.0934 0 0
4:51 am 04:51 Clear 63 17.2 43 6.1 48 48 Calm 29.89 1012 10 16.0934 0 0
5:51 am 05:51 Sunny 60 15.6 44 6.7 56 56 Calm 29.92 1013 10 16.0934 0 0
6:51 am 06:51 Sunny 69 20.6 44 6.7 41 41 SE 5 7 29.93 1013 10 16.0934 0 0
7:51 am 07:51 Sunny 73 22.8 43 6.1 34 34 SSE 3 6 29.94 1014 10 16.0934 0 0
8:51 am 08:51 Sunny 79 26.1 39 3.9 24 24 Calm 29.94 1014 10 16.0934 0 0
9:51 am 09:51 Sunny 85 29.4 39 3.9 20 20 W 5 7 29.92 1013 10 16.0934 0 0
10:51 am 10:51 Sunny 91 32.8 37 2.8 15 15 WNW 8 13 29.91 1013 10 16.0934 0 0
11:51 am 11:51 Sunny 94 34.4 37 2.8 14 14 WNW 8 13 29.89 1012 10 16.0934 0 0
12:51 pm 12:51 Sunny 96 35.6 38 3.3 13 13 VRB 3 6 29.86 1011 10 16.0934 0 0
1:51 pm 13:51 Sunny 96 35.6 40 4.4 14 14 SSW 5 7 29.84 1011 10 16.0934 0 0
2:51 pm 14:51 Sunny 98 36.7 40 4.4 13 13 WSW 9 15 29.81 1010 10 16.0934 0 0
3:51 pm 15:51 Sunny 99 37.2 39 3.9 12 12 W 10 17 29.79 1009 10 16.0934 0 0
4:51 pm 16:51 Sunny 98 36.7 36 2.2 11 11 WSW 6 9 29.77 1008 10 16.0934 0 0
5:51 pm 17:51 Sunny 97 36.1 36 2.2 12 12 W 9 15 29.77 1008 10 16.0934 0 0
6:51 pm 18:51 Sunny 93 33.9 38 3.3 14 14 W 15 24 29.78 1008 10 16.0934 0 0
7:51 pm 19:51 Clear 87 30.6 42 5.6 21 21 WNW 9 15 29.8 1009 10 16.0934 0 0
8:51 pm 20:51 Clear 86 30 41 5 20 20 NW 13 20 29.8 1009 10 16.0934 0 0
9:51 pm 21:51 Clear 84 28.9 39 3.9 20 20 NW 10 17 29.81 1009 10 16.0934 0 0
10:51 pm 22:51 Clear 80 26.7 38 3.3 22 22 WNW 9 15 29.8 1009 10 16.0934 0 0
11:51 pm 23:51 Clear 79 26.1 38 3.3 23 23 NNW 6 9 29.8 1009 10 16.0934 0 0

Powered by AerisWeather